DMSP 5D-2 F13 DEB, 40508

Orbit data source: Space-Track

DMSP 5D-2 F13 DEB, 40508 is space debris in SSO originally from a launch on Fri, 24 Mar 1995 UTC launched from the Air Force Western Test Range (AFWTR). Debris objects in space refer to the collection of defunct objects orbiting the Earth. Examples of debris include non-operational satellites, rocket bodies, and fragments generated from explosions, collisions, or faulty payload assembly.

Loading next visibility...
Identifier
40508, 1995-015CU
Orbit
SSO
Country
Flag of USUS
Related business
Manufacturer
Unknown
Mission
Spacecraft
Bus & Motor
Unknown
Mass
Unknown
Launch date (UTC)
1995-03-24 (31 years ago)
Launch vehicle
Unknown
Launch site
Air Force Western Test Range (AFWTR)
Object type
Payload
Rocket body
Debris
Shape & HBR
Unknown shape, 0.1 m
Radar Cross Section
Small (<0.1 m²)

Expand to show TLE details & history
Last TLE update: 17 hours ago

TLE from 17 hours ago
0 DMSP 5D-2 F13 DEB
1 40508U 95015CU  25349.30611132  .00003068  00000-0  14270-2 0  9990
2 40508  99.0338   1.1221 0046832 282.6075  76.9866 14.20766541551741
Epoch: 2025-12-15T07:20Z
TLE epoch observation values (Epoch: 2025-12-15T07:20:48.018Z)
Latitude
-0°
Longitude
166.71545°
Altitude
818.221 km
Speed
7.448 km/s
True Right ascension
00h 04m 29s
True Declination
0° 00' 00"
Sunlit
Object was in daylight at epoch
Visualization orbit readout
Latitude
Unknown
Longitude
Unknown
Altitude
Unknown
Speed
Unknown
Apparent Right ascension
Unknown
Apparent Declination
Unknown
Sunlit
N/A
Visualization observer readout
Local Sidereal Time
23:05:41
Azimuth
Unknown
Elevation
Unknown
Doppler factor
Unknown
Orbital elements
Apogee altitude
853.645 km
Perigee altitude
786.225 km
Semi-major axis
7,198.072 km
Eccentricity
0.00468
Inclination
99.0338°
RAAN
1.1221°
Arg. of periapsis
282.6075°
True anomaly
77.51016°
Mean anomaly
76.9866°
Eccentric anomaly
77.24831°
Mean motion
3.55401 °/min
Orbital period
101.29 mins
BSTAR
0.001427
Loading maneuver chart data...
Computing Atmospheric mass density...

Documentation

Showing up to 5 results
|